AEZ2354 LIEE-LIML

Flight info

Callsign AEZ2354
Flight time N/A
Altitude 30000
Route KOVAS DCT DEXUL DCT GIGGI DCT UPDUT DCT CORSI DCT OKROK DCT AKUTI DCT TORTU DCT ERTEV DCT OLETI DCT ITCAP
Aircraft B738/M-SDE2E3FGHIRWXY/LB1

Departure

Time 2026-05-01 08:09
Airport Cagliari Elmas Airport (LIEE)

Arrival

Time N/A
Airport Milano Linate Airport (LIML)
Time Latitude Longitude Altitude Speed Heading
2026-05-01 07:23 39.25404 9.05914 14 ft 0 kts 142°
2026-05-01 07:49 39.25409 9.05909 15 ft 4 kts 142°
2026-05-01 07:50 39.25430 9.05887 14 ft 4 kts 142°
2026-05-01 07:50 39.25471 9.05846 15 ft 3 kts 142°
2026-05-01 07:50 39.25475 9.05843 15 ft 0 kts 142°
2026-05-01 07:59 39.25466 9.05842 16 ft 4 kts 178°
2026-05-01 07:59 39.25386 9.05779 14 ft 7 kts 226°
2026-05-01 08:00 39.25231 9.05794 14 ft 8 kts 137°
2026-05-01 08:01 39.25108 9.05940 14 ft 9 kts 135°
2026-05-01 08:01 39.25064 9.06002 14 ft 10 kts 132°
2026-05-01 08:01 39.25010 9.06075 14 ft 12 kts 134°
2026-05-01 08:02 39.24772 9.06312 14 ft 24 kts 148°
2026-05-01 08:02 39.24634 9.06425 14 ft 23 kts 148°
2026-05-01 08:03 39.25445 9.05869 14 ft 3 kts 165°
2026-05-01 08:03 39.25426 9.05870 15 ft 2 kts 186°
2026-05-01 08:03 39.25348 9.05775 14 ft 10 kts 194°
2026-05-01 08:04 39.25149 9.05927 14 ft 28 kts 137°
2026-05-01 08:04 39.24854 9.06242 14 ft 24 kts 145°
2026-05-01 08:05 39.24585 9.06456 14 ft 22 kts 149°
2026-05-01 08:05 39.24457 9.06558 14 ft 21 kts 155°
2026-05-01 08:05 39.24324 9.06556 16 ft 10 kts 198°
2026-05-01 08:06 39.24235 9.06497 17 ft 2 kts 239°
2026-05-01 08:06 39.24252 9.06467 16 ft 3 kts 313°
2026-05-01 08:07 39.24320 9.06381 15 ft 12 kts 317°
2026-05-01 08:07 39.25056 9.05538 15 ft 124 kts 319°
2026-05-01 08:08 39.25811 9.04708 69 ft 156 kts 319°
2026-05-01 08:08 39.27539 9.02674 411 ft 204 kts 315°
2026-05-01 08:09 39.29920 9.00401 1168 ft 211 kts 346°
2026-05-01 08:09 39.31421 9.00217 1301 ft 230 kts
2026-05-01 08:09 39.33118 9.00633 1011 ft 263 kts 19°
2026-05-01 08:10 39.36288 9.02052 1258 ft 230 kts 20°
2026-05-01 08:10 39.39381 9.03444 1473 ft 250 kts 20°
2026-05-01 08:11 39.42664 9.04902 2733 ft 245 kts 20°
2026-05-01 08:11 39.45839 9.06300 4155 ft 237 kts 20°
2026-05-01 08:12 39.48913 9.07643 5364 ft 239 kts
2026-05-01 08:12 39.50608 9.07258 5582 ft 257 kts 342°
2026-05-01 08:12 39.54127 9.06325 6767 ft 262 kts 356°
2026-05-01 08:13 39.55957 9.06233 7379 ft 264 kts 360°
2026-05-01 08:13 39.57810 9.06308 7968 ft 268 kts
2026-05-01 08:13 39.61580 9.06712 9190 ft 275 kts
2026-05-01 08:14 39.63504 9.06956 9833 ft 279 kts
2026-05-01 08:14 39.65441 9.07271 10437 ft 284 kts
2026-05-01 08:14 39.67430 9.07879 10633 ft 305 kts 12°
2026-05-01 08:14 39.69544 9.08624 10807 ft 324 kts 13°
2026-05-01 08:15 39.71781 9.09419 10959 ft 342 kts 13°
2026-05-01 08:15 39.76596 9.11082 11450 ft 369 kts 13°
2026-05-01 08:15 39.79097 9.11925 11986 ft 372 kts 13°
2026-05-01 08:16 39.81612 9.12767 12571 ft 374 kts 13°
2026-05-01 08:16 39.84141 9.13611 13172 ft 377 kts 13°
2026-05-01 08:16 39.86681 9.14305 13728 ft 379 kts
2026-05-01 08:16 39.89321 9.14510 14292 ft 381 kts
2026-05-01 08:17 39.91984 9.14613 14803 ft 385 kts
2026-05-01 08:17 39.94667 9.14714 15381 ft 387 kts
2026-05-01 08:17 39.97365 9.14827 15957 ft 389 kts
2026-05-01 08:17 40.00079 9.14953 16516 ft 392 kts
2026-05-01 08:18 40.02809 9.15088 17069 ft 394 kts
2026-05-01 08:18 40.08354 9.15376 18045 ft 402 kts
2026-05-01 08:19 40.13973 9.15674 19096 ft 405 kts
2026-05-01 08:19 40.16795 9.15823 19603 ft 406 kts
2026-05-01 08:19 40.19630 9.15973 20064 ft 409 kts
2026-05-01 08:19 40.22484 9.16124 20523 ft 411 kts
2026-05-01 08:20 40.25350 9.16174 20958 ft 413 kts 355°
2026-05-01 08:20 40.28197 9.15674 21404 ft 413 kts 346°
2026-05-01 08:20 40.30993 9.14782 21849 ft 415 kts 345°
2026-05-01 08:20 40.33804 9.13868 22289 ft 416 kts 345°
2026-05-01 08:21 40.36619 9.12956 22733 ft 418 kts 345°
2026-05-01 08:21 40.39415 9.12059 23128 ft 420 kts 345°
2026-05-01 08:21 40.42261 9.11153 23528 ft 422 kts 345°
2026-05-01 08:21 40.45122 9.10248 23902 ft 424 kts 345°
2026-05-01 08:22 40.48031 9.09331 24229 ft 425 kts 345°
2026-05-01 08:22 40.50877 9.08436 24513 ft 427 kts 345°
2026-05-01 08:22 40.52842 9.07817 24618 ft 431 kts 345°
2026-05-01 08:22 40.55773 9.06894 24912 ft 434 kts 345°
2026-05-01 08:23 40.58670 9.05980 25293 ft 433 kts 344°
2026-05-01 08:23 40.61600 9.05056 25623 ft 434 kts 344°
2026-05-01 08:23 40.64544 9.04126 25903 ft 436 kts 344°
2026-05-01 08:23 40.67508 9.03188 26182 ft 438 kts 344°
2026-05-01 08:24 40.70478 9.02248 26450 ft 440 kts 344°
2026-05-01 08:24 40.73465 9.01301 26729 ft 441 kts 344°
2026-05-01 08:24 40.76441 9.00358 27068 ft 441 kts 343°
2026-05-01 08:24 40.79416 8.99414 27520 ft 438 kts 344°
2026-05-01 08:25 40.82369 8.98477 28068 ft 433 kts 343°
2026-05-01 08:25 40.85292 8.97548 28511 ft 431 kts 343°
2026-05-01 08:25 40.88220 8.96616 28849 ft 432 kts 343°
2026-05-01 08:25 40.91142 8.95684 29203 ft 432 kts 343°
2026-05-01 08:26 40.94057 8.94754 29607 ft 431 kts 343°
2026-05-01 08:26 40.96970 8.93825 29966 ft 430 kts 343°
2026-05-01 08:26 40.99883 8.92895 30253 ft 430 kts 343°
2026-05-01 08:27 41.05688 8.91036 30233 ft 432 kts 343°
2026-05-01 08:27 41.11491 8.89177 30240 ft 427 kts 343°
2026-05-01 08:28 41.17269 8.87321 30245 ft 427 kts 343°
2026-05-01 08:28 41.23042 8.85464 30260 ft 427 kts 343°
2026-05-01 08:29 41.28736 8.83306 30242 ft 425 kts 339°
2026-05-01 08:29 41.34493 8.81416 30247 ft 429 kts 351°
2026-05-01 08:30 41.40496 8.81459 30240 ft 433 kts 359°
2026-05-01 08:30 41.46529 8.81841 30245 ft 434 kts 359°
2026-05-01 08:31 41.52553 8.82198 30238 ft 434 kts 359°
2026-05-01 08:31 41.58602 8.82529 30245 ft 434 kts 359°
2026-05-01 08:32 41.64599 8.82846 30250 ft 435 kts 359°
2026-05-01 08:32 41.70655 8.83164 30244 ft 435 kts 359°
2026-05-01 08:33 41.76717 8.83485 30237 ft 436 kts 359°
2026-05-01 08:33 41.82783 8.83807 30240 ft 437 kts 359°
2026-05-01 08:34 41.88864 8.84131 30251 ft 437 kts
2026-05-01 08:34 41.94941 8.84455 30244 ft 436 kts
2026-05-01 08:35 42.00963 8.84777 30228 ft 435 kts
2026-05-01 08:35 42.07003 8.85100 30243 ft 433 kts
2026-05-01 08:36 42.13022 8.85423 30234 ft 432 kts
2026-05-01 08:36 42.19022 8.85745 30243 ft 431 kts
2026-05-01 08:37 42.25003 8.86068 30246 ft 430 kts
2026-05-01 08:37 42.30983 8.86390 30245 ft 430 kts
2026-05-01 08:38 42.36967 8.86713 30256 ft 431 kts
2026-05-01 08:38 42.42958 8.87037 30252 ft 431 kts
2026-05-01 08:39 42.48954 8.87362 30245 ft 431 kts
2026-05-01 08:39 42.54923 8.87686 30237 ft 432 kts
2026-05-01 08:40 42.63948 8.88178 30239 ft 433 kts
2026-05-01 08:40 42.69967 8.88507 30250 ft 432 kts
2026-05-01 08:41 42.75976 8.88835 30259 ft 432 kts
2026-05-01 08:41 42.81985 8.89175 30274 ft 432 kts
2026-05-01 08:42 42.87973 8.89834 30299 ft 432 kts
2026-05-01 08:42 42.93966 8.90602 30310 ft 432 kts
2026-05-01 08:43 42.99920 8.91327 30310 ft 433 kts
2026-05-01 08:43 43.05930 8.92032 30321 ft 433 kts
2026-05-01 08:44 43.11945 8.92735 30326 ft 434 kts
2026-05-01 08:44 43.17966 8.93442 30330 ft 434 kts
2026-05-01 08:45 43.23995 8.94149 30332 ft 435 kts
2026-05-01 08:45 43.30036 8.94822 30334 ft 435 kts
2026-05-01 08:46 43.36031 8.95489 30334 ft 435 kts
2026-05-01 08:46 43.42084 8.95925 30334 ft 436 kts
2026-05-01 08:47 43.48150 8.95859 30331 ft 436 kts
2026-05-01 08:47 43.54214 8.95799 30341 ft 436 kts
2026-05-01 08:48 43.60285 8.95797 30341 ft 436 kts
2026-05-01 08:48 43.66321 8.96408 30339 ft 435 kts 12°
2026-05-01 08:49 43.72236 8.98272 30339 ft 436 kts 13°
2026-05-01 08:49 43.78128 9.00053 30342 ft 436 kts 12°
2026-05-01 08:50 43.84109 9.01437 30348 ft 436 kts
2026-05-01 08:50 43.90166 9.02096 30344 ft 436 kts
2026-05-01 08:51 43.96218 9.02723 30339 ft 436 kts
2026-05-01 08:51 43.99218 9.03056 30319 ft 425 kts
2026-05-01 08:51 44.02109 9.03387 30331 ft 408 kts
2026-05-01 08:52 44.04867 9.03710 30420 ft 391 kts
2026-05-01 08:52 44.07580 9.04032 29784 ft 386 kts
2026-05-01 08:52 44.10222 9.04346 29299 ft 376 kts
2026-05-01 08:52 44.12799 9.04654 28800 ft 367 kts
2026-05-01 08:53 44.15323 9.04955 28310 ft 359 kts
2026-05-01 08:53 44.17787 9.05249 27830 ft 352 kts
2026-05-01 08:53 44.20180 9.05535 27373 ft 346 kts
2026-05-01 08:53 44.22590 9.05823 26901 ft 342 kts
2026-05-01 08:54 44.24945 9.06106 26476 ft 348 kts
2026-05-01 08:54 44.27347 9.06394 26009 ft 344 kts
2026-05-01 08:54 44.29709 9.06676 25557 ft 338 kts
2026-05-01 08:54 44.32033 9.06954 25117 ft 332 kts
2026-05-01 08:55 44.34312 9.07227 24691 ft 326 kts
2026-05-01 08:55 44.36558 9.07496 24275 ft 321 kts
2026-05-01 08:55 44.38768 9.07761 23837 ft 316 kts
2026-05-01 08:55 44.40946 9.08022 23343 ft 312 kts
2026-05-01 08:56 44.43104 9.08151 22845 ft 311 kts 359°
2026-05-01 08:56 44.45252 9.07789 22381 ft 309 kts 355°
2026-05-01 08:56 44.47374 9.07325 21914 ft 307 kts 355°
2026-05-01 08:56 44.49469 9.06851 21454 ft 305 kts 355°
2026-05-01 08:57 44.51562 9.06385 21003 ft 303 kts 355°
2026-05-01 08:57 44.53633 9.05933 20550 ft 300 kts 355°
2026-05-01 08:57 44.55694 9.05492 20112 ft 298 kts 356°
2026-05-01 08:57 44.57744 9.05061 19679 ft 297 kts 355°
2026-05-01 08:58 44.59789 9.04634 19248 ft 295 kts 355°
2026-05-01 08:58 44.61807 9.04213 18835 ft 292 kts 356°
2026-05-01 08:58 44.63808 9.03798 18369 ft 290 kts 356°
2026-05-01 08:58 44.65796 9.03387 17916 ft 287 kts 356°
2026-05-01 08:59 44.67773 9.02978 17438 ft 286 kts 356°
2026-05-01 08:59 44.69740 9.02571 16974 ft 285 kts 356°
2026-05-01 08:59 44.71696 9.02167 16525 ft 283 kts 355°
2026-05-01 08:59 44.73617 9.01770 16077 ft 281 kts 355°
2026-05-01 09:00 44.75547 9.01369 15641 ft 279 kts 355°
2026-05-01 09:00 44.77468 9.00971 15208 ft 278 kts 355°
2026-05-01 09:00 44.79378 9.00575 14775 ft 277 kts 355°
2026-05-01 09:00 44.81288 9.00178 14354 ft 276 kts 355°
2026-05-01 09:01 44.83187 8.99784 13904 ft 274 kts 355°
2026-05-01 09:01 44.85072 8.99392 13432 ft 273 kts 355°
2026-05-01 09:01 44.86956 8.99000 12970 ft 273 kts 354°
2026-05-01 09:01 44.88834 8.98610 12513 ft 273 kts 354°
2026-05-01 09:02 44.90712 8.98219 12058 ft 272 kts 354°
2026-05-01 09:02 44.92586 8.97828 11617 ft 272 kts 354°
2026-05-01 09:02 44.94438 8.97442 11174 ft 271 kts 354°
2026-05-01 09:02 44.96296 8.97514 10706 ft 267 kts 20°
2026-05-01 09:03 44.97918 8.98729 10246 ft 265 kts 37°
2026-05-01 09:03 44.99348 9.00387 9679 ft 268 kts 41°
2026-05-01 09:03 45.00742 9.02155 9148 ft 270 kts 42°
2026-05-01 09:03 45.02134 9.03939 8824 ft 264 kts 42°
2026-05-01 09:04 45.03443 9.05611 8714 ft 250 kts 41°
2026-05-01 09:04 45.04707 9.07215 8602 ft 237 kts 41°
2026-05-01 09:04 45.05910 9.08732 8491 ft 225 kts 41°
2026-05-01 09:04 45.07053 9.10169 8359 ft 214 kts 41°
2026-05-01 09:05 45.08148 9.11542 8153 ft 207 kts 41°
2026-05-01 09:05 45.09221 9.12887 7867 ft 205 kts 40°
2026-05-01 09:05 45.10279 9.14214 7644 ft 200 kts 41°
2026-05-01 09:05 45.11311 9.15508 7412 ft 195 kts 40°
2026-05-01 09:06 45.12331 9.16787 7106 ft 194 kts 39°
2026-05-01 09:06 45.13307 9.18008 7003 ft 182 kts 39°
2026-05-01 09:06 45.14246 9.19185 6732 ft 181 kts 39°
2026-05-01 09:06 45.15188 9.20364 6420 ft 181 kts 39°
2026-05-01 09:07 45.16128 9.21540 6120 ft 179 kts 39°
2026-05-01 09:07 45.17052 9.22699 5850 ft 177 kts 39°
2026-05-01 09:07 45.17960 9.23837 5659 ft 170 kts 40°
2026-05-01 09:07 45.18838 9.24936 5432 ft 167 kts 40°
2026-05-01 09:08 45.19721 9.26045 5028 ft 172 kts 40°
2026-05-01 09:08 45.20624 9.27177 4647 ft 174 kts 41°
2026-05-01 09:08 45.21515 9.28294 4418 ft 167 kts 43°
2026-05-01 09:08 45.22350 9.29344 4163 ft 158 kts 41°
2026-05-01 09:09 45.23348 9.29886 3814 ft 155 kts
2026-05-01 09:09 45.24415 9.29831 3480 ft 152 kts 360°
2026-05-01 09:09 45.25464 9.29732 3141 ft 150 kts
2026-05-01 09:09 45.26504 9.29624 3029 ft 152 kts
2026-05-01 09:10 45.27553 9.29514 3070 ft 146 kts
2026-05-01 09:10 45.28221 9.29446 2989 ft 139 kts
2026-05-01 09:10 45.29464 9.29321 3039 ft 137 kts
2026-05-01 09:10 45.30107 9.29256 2986 ft 136 kts
2026-05-01 09:11 45.31062 9.29163 2798 ft 144 kts
2026-05-01 09:11 45.32078 9.29081 2635 ft 152 kts
2026-05-01 09:11 45.33128 9.28913 2458 ft 153 kts 359°
2026-05-01 09:11 45.34182 9.28808 2247 ft 150 kts
2026-05-01 09:12 45.35222 9.28704 2015 ft 149 kts
2026-05-01 09:12 45.36245 9.28577 1844 ft 149 kts
2026-05-01 09:12 45.37276 9.28508 1647 ft 147 kts